Temp
-6 -7 -6 -6 -6 -6 -6 -6 -6 -6 -6 -7 -7 -6 -6 -6 -6 -6 -6 -6 -6 -6 -6 -6 -6 -6 -6 -6 -6 -6 -6 -6 -6 -6 -6 -6 -6 -6 -6 -6 -6 -7 -7 -7 -7 -7 -7 -7 -6 -6 -6 -6 -6 -6 -6 -6 -6 -6 -6 -6 -7 -7 -7
-7 -7 -6 -6 -6 -6 -6 -6 -6 -6 -6 -6 -6 -6 -6 -6 -6 -6 -6 -6 -6 -6 -6 -6 -6 -6 -6 -6 -6 -6 -6 -6 -6 -6 -6 -6 -6 -6 -6 -6 -7 -7 -7 -7 -7 -7 -7 -7 -6 -6 -7 -6 -6 -6 -6 -6 -6 -6 -6 -7 -7 -7 -7
-6 -7 -7 -7 -6 -6 -6 -6 -6 -6 -6 -6 -6 -6 -6 -6 -6 -6 -6 -5 -5 -6 -5 -5 -6 -6 -6 -6 -6 -6 -6 -6 -6 -6 -6 -6 -6 -6 -6 -7 -7 -7 -7 -7 -7 -7 -7 -7 -7 -7 -7 -6 -6 -6 -6 -6 -6 -6 -7 -7 -7 -7 -7
-7 -7 -7 -7 -7 -6 -6 -6 -6 -6 -6 -6 -6 -6 -6 -6 -6 -6 -6 -6 -5 -5 -5 -5 -6 -6 -6 -6 -6 -6 -7 -7 -7 -7 -7 -7 -7 -7 -7 -7 -7 -7 -7 -7 -7 -7 -7 -7 -7 -7 -7 -7 -7 -7 -7 -7 -7 -7 -7 -7 -7 -7 -7
-7 -7 -7 -7 -7 -7 -6 -6 -6 -6 -6 -6 -6 -6 -6 -6 -6 -6 -6 -6 -6 -5 -5 -5 -6 -6 -6 -6 -6 -6 -7 -7 -7 -7 -7 -7 -7 -7 -7 -7 -7 -7 -7 -7 -7 -7 -8 -8 -8 -8 -7 -7 -7 -7 -7 -7 -7 -7 -7 -7 -7 -7 -7
-7 -7 -7 -7 -7 -7 -6 -6 -6 -6 -6 -6 -6 -6 -6 -6 -6 -6 -6 -6 -6 -6 -6 -6 -6 -6 -6 -6 -6 -6 -7 -7 -7 -7 -7 -7 -7 -7 -7 -7 -7 -7 -7 -7 -8 -8 -8 -8 -8 -8 -7 -7 -7 -7 -7 -7 -7 -7 -7 -7 -7 -7 -7
-7 -7 -7 -7 -6 -6 -6 -6 -6 -6 -6 -6 -6 -6 -6 -6 -6 -6 -6 -6 -6 -6 -6 -6 -6 -6 -6 -6 -6 -6 -7 -7 -7 -7 -7 -7 -7 -7 -7 -7 -7 -7 -7 -8 -8 -8 -8 -8 -8 -8 -8 -8 -7 -7 -7 -7 -7 -7 -7 -7 -7 -7 -7
-7 -7 -7 -7 -7 -7 -7 -6 -6 -6 -6 -6 -6 -6 -6 -6 -6 -6 -6 -6 -6 -6 -6 -6 -6 -6 -6 -6 -6 -7 -7 -7 -7 -7 -7 -7 -7 -7 -7 -7 -7 -7 -7 -8 -8 -8 -8 -8 -8 -8 -8 -8 -8 -8 -8 -8 -8 -8 -7 -7 -8 -8 -7
-7 -7 -7 -7 -7 -7 -7 -7 -7 -6 -6 -6 -6 -6 -6 -6 -6 -6 -6 -6 -6 -6 -6 -6 -6 -6 -6 -6 -6 -6 -7 -7 -7 -7 -7 -7 -7 -7 -7 -7 -7 -7 -8 -8 -7 -8 -8 -8 -8 -8 -8 -8 -8 -8 -8 -8 -8 -7 -7 -8 -8 -8 -8
-7 -7 -7 -7 -7 -7 -7 -7 -7 -6 -6 -6 -6 -6 -6 -6 -6 -6 -6 -6 -6 -6 -6 -6 -6 -6 -6 -6 -6 -6 -7 -7 -7 -8 -7 -7 -7 -7 -7 -7 -7 -7 -8 -8 -8 -8 -8 -8 -8 -8 -8 -8 -8 -8 -8 -8 -8 -7 -8 -8 -8 -8 -8
-7 -7 -7 -7 -7 -7 -7 -7 -7 -6 -6 -6 -6 -6 -6 -6 -6 -6 -6 -6 -6 -6 -6 -6 -6 -6 -6 -6 -6 -7 -7 -7 -7 -7 -7 -7 -7 -7 -7 -7 -7 -7 -8 -8 -8 -8 -8 -8 -8 -8 -8 -8 -8 -8 -8 -8 -8 -8 -8 -8 -8 -8 -8
-7 -7 -7 -7 -7 -7 -7 -7 -6 -6 -6 -6 -6 -6 -6 -6 -6 -6 -6 -6 -6 -7 -6 -6 -7 -6 -6 -7 -7 -8 -7 -7 -7 -7 -7 -7 -7 -7 -7 -8 -8 -8 -8 -8 -8 -8 -8 -8 -8 -8 -8 -8 -8 -8 -8 -8 -8 -8 -8 -8 -8 -8 -8
-7 -7 -7 -7 -7 -7 -7 -7 -6 -6 -6 -6 -7 -7 -6 -6 -6 -6 -6 -6 -7 -7 -7 -7 -7 -7 -7 -7 -8 -8 -7 -7 -7 -7 -7 -7 -7 -7 -7 -8 -8 -8 -8 -8 -8 -8 -8 -8 -8 -8 -8 -8 -8 -8 -8 -8 -8 -8 -8 -8 -8 -8 -8
-7 -7 -7 -7 -7 -7 -7 -7 -6 -6 -7 -7 -7 -7 -6 -6 -6 -6 -6 -6 -7 -7 -7 -7 -7 -7 -7 -8 -8 -7 -7 -7 -7 -7 -7 -7 -7 -7 -7 -7 -8 -8 -8 -8 -8 -8 -8 -8 -8 -8 -8 -8 -8 -8 -8 -8 -8 -8 -8 -8 -8 -8 -9
-7 -7 -7 -7 -7 -7 -7 -7 -6 -6 -7 -7 -7 -7 -7 -7 -6 -6 -6 -6 -6 -7 -7 -7 -6 -7 -7 -7 -7 -7 -7 -7 -7 -7 -7 -7 -7 -7 -7 -7 -8 -8 -8 -8 -8 -8 -8 -8 -8 -8 -8 -8 -8 -8 -8 -8 -8 -8 -8 -8 -9 -9 -9
-8 -7 -7 -7 -7 -7 -7 -7 -7 -7 -7 -7 -7 -7 -7 -7 -7 -6 -6 -6 -6 -6 -7 -7 -7 -7 -8 -7 -7 -8 -7 -7 -7 -7 -7 -7 -7 -7 -7 -8 -8 -8 -8 -8 -8 -8 -8 -8 -8 -8 -8 -8 -8 -8 -8 -8 -8 -8 -9 -9 -9 -9 -9
-8 -7 -7 -7 -7 -6 -7 -7 -7 -7 -7 -7 -7 -7 -7 -7 -7 -6 -6 -6 -6 -6 -6 -7 -7 -7 -8 -7 -7 -7 -8 -8 -8 -8 -7 -7 -7 -7 -7 -8 -8 -8 -8 -8 -8 -8 -8 -8 -8 -8 -8 -8 -8 -8 -8 -8 -8 -9 -9 -9 -9 -9 -9
-7 -7 -7 -7 -6 -7 -7 -7 -7 -7 -7 -7 -7 -7 -6 -6 -6 -6 -6 -6 -6 -6 -6 -7 -7 -7 -7 -7 -7 -7 -8 -8 -8 -8 -7 -7 -7 -7 -7 -8 -8 -8 -8 -7 -7 -7 -7 -8 -8 -8 -8 -8 -8 -8 -8 -9 -9 -9 -9 -9 -9 -9 -9
-7 -7 -7 -7 -7 -7 -7 -7 -7 -7 -7 -7 -7 -7 -6 -6 -6 -6 -6 -6 -6 -6 -6 -6 -7 -7 -7 -7 -7 -7 -8 -8 -8 -8 -8 -7 -7 -7 -8 -8 -8 -8 -7 -7 -7 -7 -7 -8 -8 -8 -8 -8 -8 -8 -9 -9 -9 -9 -9 -9 -9 -9 -9
-7 -7 -7 -7 -7 -7 -8 -7 -7 -7 -7 -7 -7 -7 -6 -6 -6 -6 -6 -6 -6 -6 -6 -6 -7 -7 -7 -7 -7 -7 -7 -8 -8 -8 -8 -7 -7 -7 -8 -8 -8 -8 -7 -7 -7 -7 -7 -7 -8 -8 -8 -8 -8 -9 -9 -9 -9 -9 -9 -9 -9 -9 -9
-7 -7 -7 -7 -8 -8 -8 -8 -7 -7 -7 -7 -7 -7 -6 -6 -6 -6 -6 -6 -6 -6 -6 -7 -7 -7 -7 -7 -7 -7 -7 -7 -8 -8 -8 -7 -7 -7 -7 -7 -7 -7 -7 -7 -7 -7 -7 -8 -8 -8 -8 -8 -8 -9 -9 -9 -9 -9 -9 -9 -9 -9 -9
-8 -7 -7 -7 -8 -8 -8 -8 -7 -7 -7 -7 -7 -7 -6 -6 -6 -6 -6 -6 -6 -6 -6 -7 -7 -7 -7 -7 -8 -8 -8 -8 -8 -8 -8 -8 -8 -8 -7 -7 -8 -7 -7 -8 -8 -8 -8 -8 -8 -8 -8 -8 -8 -9 -9 -9 -9 -9 -9 -9 -9 -9 -9
-8 -7 -7 -8 -8 -8 -8 -7 -7 -7 -7 -7 -7 -6 -6 -6 -6 -6 -6 -6 -6 -6 -6 -7 -7 -7 -7 -8 -8 -8 -8 -8 -8 -8 -8 -8 -8 -8 -8 -8 -8 -8 -8 -8 -8 -8 -8 -8 -8 -8 -8 -8 -9 -9 -9 -9 -9 -9 -9 -9 -9 -9 -9
-8 -7 -7 -8 -8 -8 -8 -7 -7 -7 -7 -7 -7 -6 -6 -6 -6 -6 -6 -6 -6 -6 -6 -7 -7 -7 -7 -8 -8 -8 -8 -8 -8 -8 -8 -8 -8 -8 -8 -8 -8 -8 -8 -8 -8 -8 -8 -8 -8 -8 -8 -8 -9 -9 -9 -9 -9 -9 -9 -9 -9 -9 -9
-8 -7 -8 -8 -8 -8 -7 -7 -7 -7 -7 -7 -7 -6 -6 -6 -6 -6 -6 -6 -6 -6 -6 -6 -7 -7 -7 -7 -7 -8 -8 -8 -8 -8 -8 -8 -8 -8 -8 -8 -8 -8 -8 -8 -8 -8 -8 -8 -8 -8 -8 -9 -9 -9 -9 -9 -9 -9 -9 -9 -9 -9 -9
-8 -8 -8 -8 -8 -7 -7 -7 -7 -7 -7 -7 -7 -6 -6 -7 -7 -6 -6 -6 -6 -6 -6 -6 -6 -7 -7 -7 -7 -7 -8 -8 -8 -8 -8 -8 -8 -8 -8 -8 -8 -8 -8 -8 -8 -8 -8 -8 -8 -8 -8 -9 -9 -9 -9 -9 -9 -9 -9 -9 -9 -9 -9
-8 -8 -8 -7 -7 -7 -7 -7 -7 -7 -7 -7 -7 -7 -7 -7 -7 -6 -6 -6 -6 -6 -6 -6 -6 -6 -7 -7 -7 -7 -7 -8 -8 -8 -8 -8 -8 -8 -8 -8 -8 -8 -8 -8 -8 -8 -9 -9 -9 -8 -8 -9 -9 -9 -9 -9 -9 -9 -9 -9 -9 -9 -9
-8 -8 -8 -7 -7 -7 -7 -7 -7 -7 -7 -7 -7 -7 -7 -7 -7 -6 -6 -6 -6 -6 -6 -6 -6 -6 -6 -7 -7 -7 -7 -7 -8 -8 -8 -8 -8 -8 -8 -8 -8 -8 -8 -8 -8 -9 -9 -9 -9 -8 -9 -9 -9 -9 -9 -9 -9 -9 -9 -9 -9 -9 -9
-8 -8 -7 -7 -7 -7 -7 -7 -7 -7 -7 -7 -7 -7 -7 -7 -7 -6 -6 -6 -6 -6 -6 -6 -6 -6 -6 -6 -7 -7 -7 -8 -8 -8 -8 -8 -8 -8 -8 -8 -8 -8 -8 -8 -8 -8 -9 -9 -9 -9 -9 -9 -8 -9 -9 -9 -9 -9 -9 -9 -9 -9 -9
-8 -7 -7 -7 -7 -7 -7 -7 -7 -7 -7 -7 -7 -7 -7 -7 -7 -6 -6 -6 -6 -6 -6 -6 -6 -6 -7 -7 -7 -7 -7 -7 -8 -8 -8 -8 -8 -8 -8 -8 -8 -8 -8 -8 -8 -8 -9 -9 -9 -9 -9 -8 -9 -9 -9 -9 -9 -9 -9 -9 -9 -9 -9
-8 -7 -7 -7 -7 -7 -7 -7 -7 -7 -7 -7 -7 -7 -7 -7 -7 -6 -6 -6 -6 -6 -6 -6 -6 -6 -7 -7 -7 -7 -7 -7 -7 -8 -8 -8 -8 -8 -8 -8 -8 -8 -8 -8 -8 -8 -9 -9 -9 -8 -9 -9 -9 -9 -9 -9 -9 -9 -9 -9 -9 -9 -9
-7 -7 -7 -7 -7 -7 -7 -7 -7 -7 -7 -7 -7 -7 -7 -7 -7 -7 -7 -6 -6 -6 -6 -6 -6 -6 -6 -7 -7 -7 -7 -7 -7 -7 -8 -8 -8 -8 -8 -8 -8 -8 -8 -8 -8 -8 -9 -9 -9 -9 -9 -9 -9 -9 -9 -9 -9 -9 -9 -9 -9 -10 -10
-7 -7 -7 -7 -7 -7 -7 -7 -7 -7 -7 -7 -7 -7 -7 -7 -7 -7 -7 -7 -6 -6 -6 -6 -6 -6 -6 -6 -7 -7 -7 -7 -7 -7 -7 -7 -8 -8 -8 -8 -8 -8 -8 -9 -9 -9 -9 -9 -9 -9 -9 -8 -9 -9 -9 -9 -9 -9 -9 -9 -10 -10 -10
-8 -8 -7 -7 -7 -7 -7 -7 -7 -7 -7 -7 -7 -7 -7 -7 -7 -7 -7 -7 -6 -6 -6 -6 -6 -6 -6 -6 -7 -7 -7 -7 -7 -7 -7 -7 -7 -7 -8 -8 -8 -8 -8 -8 -8 -8 -8 -8 -8 -9 -9 -9 -9 -9 -9 -9 -9 -9 -9 -9 -10 -10 -10
-8 -8 -7 -7 -7 -7 -7 -7 -6 -6 -6 -7 -7 -7 -7 -7 -7 -7 -7 -7 -6 -6 -6 -6 -6 -6 -6 -6 -7 -7 -7 -7 -7 -7 -7 -7 -7 -7 -7 -7 -7 -8 -8 -8 -8 -8 -8 -8 -8 -8 -9 -9 -9 -9 -9 -9 -9 -9 -9 -9 -10 -10 -10
-8 -8 -7 -7 -7 -7 -7 -6 -6 -6 -6 -6 -7 -7 -7 -7 -7 -7 -7 -7 -7 -7 -6 -6 -6 -6 -6 -7 -7 -7 -7 -7 -7 -7 -7 -7 -7 -7 -7 -7 -7 -7 -7 -8 -8 -8 -8 -8 -8 -8 -9 -9 -9 -9 -9 -9 -9 -9 -9 -9 -10 -10 -10
-8 -8 -7 -7 -7 -7 -7 -6 -6 -6 -6 -6 -6 -7 -7 -7 -7 -7 -7 -7 -7 -7 -7 -7 -7 -6 -6 -7 -7 -7 -7 -7 -7 -7 -7 -7 -7 -7 -7 -7 -7 -7 -7 -7 -7 -8 -8 -8 -8 -8 -9 -9 -9 -9 -9 -9 -9 -9 -9 -9 -10 -10 -10
-8 -8 -7 -7 -7 -7 -7 -6 -6 -6 -6 -6 -6 -7 -7 -7 -7 -7 -7 -7 -7 -7 -7 -7 -7 -7 -7 -7 -7 -7 -7 -7 -7 -7 -7 -7 -7 -7 -7 -7 -7 -7 -7 -7 -8 -8 -8 -8 -8 -8 -8 -9 -9 -9 -9 -9 -9 -9 -9 -9 -9 -10 -10
Height
5911 5911 5911 5910 5909 5907 5906 5905 5902 5898 5895 5893 5891 5890 5890 5889 5889 5888 5888 5888 5887 5886 5885 5884 5883 5883 5882 5881 5880 5880 5880 5879 5879 5878 5877 5877 5876 5875 5874 5873 5872 5871 5870 5869 5868 5867 5866 5866 5866 5865 5864 5862 5861 5859 5858 5856 5855 5854 5852 5851 5850 5849 5848
5911 5911 5910 5908 5907 5906 5905 5904 5902 5899 5896 5893 5892 5891 5889 5889 5888 5888 5888 5888 5887 5886 5884 5883 5881 5881 5880 5880 5880 5879 5879 5879 5878 5877 5876 5875 5875 5874 5873 5872 5870 5869 5869 5868 5867 5866 5866 5865 5864 5864 5863 5862 5860 5858 5857 5856 5854 5853 5851 5850 5849 5848 5847
5909 5909 5907 5906 5905 5905 5904 5902 5901 5899 5897 5894 5892 5891 5890 5888 5887 5887 5887 5887 5887 5885 5884 5882 5881 5880 5879 5879 5878 5878 5877 5877 5876 5876 5875 5874 5873 5872 5871 5871 5869 5868 5867 5867 5866 5865 5864 5863 5863 5862 5861 5860 5859 5857 5856 5855 5853 5852 5851 5849 5848 5847 5847
5909 5907 5906 5905 5904 5904 5903 5902 5901 5899 5897 5895 5893 5891 5890 5889 5887 5886 5886 5885 5885 5884 5883 5882 5881 5879 5879 5878 5877 5876 5876 5875 5875 5874 5873 5873 5872 5871 5870 5869 5868 5867 5866 5865 5865 5864 5863 5862 5861 5860 5859 5858 5857 5855 5854 5853 5852 5851 5850 5849 5848 5847 5846
5909 5907 5906 5905 5904 5904 5904 5902 5900 5899 5897 5894 5892 5891 5890 5889 5887 5886 5885 5885 5884 5883 5882 5881 5880 5879 5878 5877 5877 5876 5875 5874 5873 5872 5871 5871 5870 5868 5868 5867 5866 5865 5864 5863 5863 5862 5861 5860 5859 5859 5858 5856 5855 5854 5853 5852 5851 5850 5849 5848 5847 5847 5846
5909 5908 5907 5905 5905 5905 5904 5903 5901 5899 5896 5893 5892 5891 5890 5888 5888 5887 5886 5885 5884 5883 5882 5881 5880 5879 5878 5877 5876 5875 5873 5872 5871 5870 5869 5869 5868 5867 5866 5866 5865 5864 5863 5862 5860 5859 5859 5858 5858 5857 5856 5855 5854 5853 5852 5851 5850 5849 5849 5848 5847 5846 5845
5909 5908 5907 5906 5904 5904 5903 5903 5901 5899 5896 5893 5891 5890 5889 5888 5887 5887 5886 5885 5884 5883 5882 5881 5880 5879 5878 5877 5875 5874 5872 5870 5870 5869 5868 5867 5866 5865 5865 5864 5863 5862 5861 5860 5859 5858 5857 5856 5856 5855 5855 5854 5852 5852 5851 5850 5850 5849 5848 5847 5846 5845 5844
5909 5907 5906 5905 5904 5903 5903 5902 5900 5898 5896 5893 5891 5890 5888 5887 5887 5886 5886 5885 5885 5884 5883 5882 5880 5879 5878 5876 5875 5873 5871 5870 5869 5868 5868 5867 5865 5864 5864 5863 5862 5861 5859 5858 5857 5856 5855 5855 5854 5854 5853 5853 5852 5851 5850 5850 5849 5849 5848 5847 5846 5845 5844
5908 5906 5904 5904 5903 5903 5903 5901 5899 5897 5896 5894 5892 5890 5889 5887 5886 5885 5885 5885 5885 5884 5883 5882 5881 5879 5878 5876 5874 5873 5871 5869 5869 5868 5868 5867 5865 5863 5863 5862 5861 5860 5858 5857 5856 5855 5854 5854 5853 5853 5853 5852 5851 5851 5850 5850 5849 5848 5847 5846 5845 5844 5843
5907 5904 5903 5903 5903 5903 5902 5900 5898 5897 5896 5894 5892 5890 5889 5888 5887 5886 5885 5885 5884 5883 5882 5881 5880 5878 5877 5875 5873 5871 5870 5869 5869 5868 5867 5865 5863 5862 5862 5862 5861 5859 5858 5857 5855 5854 5853 5852 5852 5852 5852 5852 5851 5850 5850 5849 5849 5848 5847 5846 5845 5844 5843
5906 5904 5903 5903 5903 5903 5902 5900 5899 5898 5896 5893 5891 5890 5889 5888 5887 5887 5886 5884 5883 5882 5880 5879 5878 5876 5874 5873 5871 5870 5869 5868 5866 5865 5864 5863 5862 5860 5860 5861 5860 5858 5857 5856 5854 5853 5852 5851 5851 5851 5851 5851 5851 5850 5850 5849 5848 5847 5846 5845 5844 5843 5842
5905 5904 5904 5903 5903 5903 5902 5902 5900 5897 5895 5892 5891 5890 5889 5888 5888 5887 5886 5884 5883 5881 5879 5878 5876 5874 5873 5872 5871 5870 5868 5866 5863 5861 5861 5861 5861 5859 5858 5858 5857 5856 5854 5854 5853 5852 5850 5850 5850 5851 5851 5851 5850 5850 5849 5849 5848 5847 5846 5845 5844 5842 5841
5904 5904 5904 5903 5902 5902 5902 5903 5901 5896 5893 5891 5890 5890 5889 5888 5888 5887 5886 5884 5883 5881 5879 5877 5875 5874 5873 5872 5870 5868 5866 5865 5862 5860 5860 5860 5859 5858 5857 5855 5854 5854 5853 5852 5851 5850 5850 5849 5850 5850 5850 5850 5850 5849 5849 5848 5847 5846 5845 5844 5843 5842 5841
5905 5905 5904 5903 5902 5902 5902 5902 5899 5894 5891 5891 5890 5890 5889 5888 5888 5887 5886 5885 5883 5881 5879 5876 5873 5873 5872 5871 5869 5866 5864 5863 5861 5859 5858 5858 5856 5855 5854 5853 5853 5853 5852 5851 5851 5850 5850 5850 5850 5850 5850 5850 5849 5849 5848 5847 5847 5846 5845 5844 5843 5842 5841
5907 5906 5905 5904 5904 5904 5903 5900 5896 5892 5891 5891 5890 5890 5889 5889 5888 5887 5886 5884 5882 5880 5878 5875 5872 5871 5871 5870 5868 5865 5863 5862 5860 5858 5857 5856 5854 5852 5852 5852 5852 5852 5851 5851 5850 5850 5850 5850 5850 5850 5849 5849 5849 5848 5848 5847 5846 5845 5845 5844 5843 5841 5840
5908 5907 5906 5906 5906 5905 5901 5897 5893 5892 5891 5891 5891 5890 5890 5889 5888 5887 5885 5884 5882 5880 5878 5875 5873 5872 5872 5869 5866 5864 5863 5861 5859 5858 5857 5855 5853 5852 5851 5851 5851 5851 5851 5851 5851 5851 5851 5851 5850 5850 5849 5849 5848 5848 5847 5846 5846 5846 5845 5843 5842 5841 5839
5907 5906 5905 5905 5904 5901 5897 5893 5892 5892 5891 5891 5891 5891 5890 5890 5888 5887 5885 5884 5882 5880 5878 5876 5874 5873 5872 5869 5866 5864 5863 5861 5859 5858 5856 5854 5852 5851 5851 5851 5851 5851 5852 5852 5852 5851 5851 5851 5851 5850 5849 5848 5848 5847 5847 5846 5846 5845 5844 5843 5841 5840 5838
5906 5905 5905 5904 5900 5896 5893 5892 5892 5892 5892 5892 5892 5891 5891 5890 5888 5887 5885 5884 5883 5881 5879 5877 5874 5873 5872 5870 5866 5864 5863 5861 5859 5857 5855 5853 5852 5851 5851 5851 5852 5853 5853 5853 5852 5852 5852 5851 5851 5850 5849 5848 5848 5847 5846 5846 5846 5845 5844 5842 5841 5839 5838
5905 5905 5904 5901 5896 5893 5892 5893 5893 5893 5893 5893 5892 5891 5891 5890 5889 5887 5886 5884 5883 5881 5879 5877 5874 5872 5870 5868 5866 5864 5862 5861 5860 5859 5857 5855 5853 5852 5853 5853 5853 5854 5854 5854 5853 5853 5852 5852 5851 5850 5849 5849 5848 5847 5846 5846 5846 5845 5843 5842 5840 5839 5837
5903 5903 5901 5896 5892 5891 5892 5894 5894 5894 5894 5893 5892 5892 5891 5890 5889 5887 5886 5885 5883 5882 5880 5878 5875 5872 5869 5866 5864 5862 5860 5860 5860 5860 5860 5858 5855 5854 5854 5854 5855 5855 5855 5854 5854 5853 5852 5852 5851 5850 5849 5849 5847 5846 5846 5846 5845 5844 5843 5841 5839 5838 5837
5902 5902 5897 5892 5891 5892 5894 5895 5895 5895 5894 5893 5892 5892 5891 5890 5889 5888 5886 5885 5884 5882 5880 5878 5876 5873 5869 5867 5864 5862 5859 5858 5858 5859 5859 5858 5857 5856 5856 5856 5856 5856 5856 5855 5854 5853 5852 5851 5850 5850 5849 5848 5847 5846 5846 5846 5845 5844 5842 5840 5839 5838 5836
5901 5900 5894 5891 5892 5893 5894 5895 5896 5895 5894 5893 5893 5892 5891 5890 5889 5888 5886 5885 5884 5882 5880 5878 5876 5873 5870 5867 5865 5863 5861 5859 5858 5857 5858 5859 5858 5858 5857 5857 5857 5857 5856 5855 5855 5854 5853 5851 5850 5850 5849 5848 5847 5846 5846 5846 5845 5843 5841 5840 5839 5837 5835
5901 5897 5893 5891 5893 5895 5895 5896 5896 5896 5895 5894 5893 5892 5891 5890 5889 5887 5886 5885 5884 5882 5880 5878 5875 5873 5870 5867 5864 5863 5862 5861 5860 5859 5859 5859 5859 5859 5858 5858 5858 5857 5857 5856 5855 5854 5852 5851 5850 5850 5849 5848 5847 5846 5846 5846 5844 5843 5841 5839 5838 5836 5835
5899 5895 5892 5891 5892 5894 5896 5897 5896 5896 5895 5894 5893 5892 5891 5890 5888 5887 5885 5884 5884 5882 5880 5878 5875 5872 5870 5867 5864 5863 5863 5862 5862 5861 5860 5860 5860 5860 5859 5858 5858 5857 5856 5856 5855 5853 5852 5851 5850 5849 5848 5848 5847 5846 5846 5845 5844 5842 5841 5839 5838 5836 5834
5897 5893 5891 5891 5892 5894 5896 5897 5896 5896 5895 5894 5893 5892 5891 5890 5888 5887 5885 5884 5883 5882 5880 5878 5875 5873 5870 5867 5865 5864 5863 5863 5863 5862 5861 5860 5860 5860 5859 5859 5858 5857 5856 5855 5854 5853 5852 5851 5850 5849 5848 5847 5847 5846 5845 5844 5843 5842 5840 5839 5837 5835 5833
5894 5893 5893 5893 5893 5894 5896 5896 5896 5896 5895 5894 5893 5892 5891 5889 5888 5886 5885 5884 5882 5881 5879 5877 5875 5873 5870 5868 5866 5865 5864 5863 5863 5862 5862 5861 5860 5860 5859 5858 5857 5856 5855 5855 5854 5853 5852 5851 5850 5849 5848 5847 5846 5846 5845 5844 5843 5841 5840 5838 5837 5835 5833
5893 5894 5895 5895 5895 5895 5896 5896 5896 5895 5895 5894 5893 5891 5890 5889 5888 5886 5885 5884 5882 5880 5879 5877 5876 5874 5872 5869 5867 5866 5865 5864 5863 5863 5862 5862 5861 5860 5859 5858 5858 5857 5856 5855 5854 5853 5852 5851 5850 5849 5848 5847 5847 5846 5845 5844 5842 5841 5839 5838 5836 5835 5833
5895 5896 5897 5898 5897 5896 5896 5896 5896 5895 5895 5894 5892 5891 5890 5889 5887 5886 5885 5884 5883 5881 5879 5878 5876 5875 5873 5871 5869 5867 5866 5865 5864 5863 5863 5862 5862 5861 5860 5859 5858 5857 5856 5855 5854 5853 5852 5851 5850 5849 5848 5848 5847 5846 5844 5843 5842 5841 5839 5837 5836 5834 5832
5895 5896 5898 5898 5896 5895 5896 5896 5896 5895 5894 5893 5892 5891 5889 5888 5887 5886 5885 5884 5883 5881 5880 5878 5877 5875 5874 5872 5870 5868 5867 5866 5865 5864 5863 5863 5862 5861 5861 5860 5859 5858 5857 5855 5854 5853 5852 5851 5850 5849 5848 5848 5846 5845 5844 5843 5842 5841 5839 5837 5835 5834 5832
5897 5897 5897 5896 5895 5895 5895 5895 5895 5895 5894 5893 5892 5890 5889 5888 5887 5886 5885 5884 5883 5882 5880 5879 5877 5876 5874 5873 5871 5869 5868 5866 5865 5864 5863 5863 5862 5861 5861 5860 5859 5858 5857 5855 5854 5853 5852 5851 5850 5849 5848 5847 5846 5845 5844 5843 5842 5840 5839 5837 5835 5833 5832
5897 5896 5894 5893 5893 5894 5895 5895 5895 5894 5893 5892 5891 5889 5888 5887 5887 5886 5885 5884 5883 5882 5881 5879 5878 5876 5875 5873 5872 5871 5869 5868 5866 5865 5864 5863 5862 5861 5861 5860 5859 5858 5856 5855 5854 5853 5852 5851 5850 5849 5848 5847 5846 5845 5844 5842 5841 5840 5839 5837 5835 5833 5831
5894 5892 5891 5892 5893 5894 5894 5895 5894 5894 5893 5891 5890 5889 5888 5888 5887 5886 5885 5884 5883 5882 5881 5880 5878 5877 5876 5874 5873 5871 5870 5869 5867 5866 5865 5863 5862 5862 5861 5860 5859 5858 5856 5855 5854 5853 5852 5851 5850 5849 5847 5846 5845 5844 5843 5842 5841 5839 5838 5836 5834 5832 5831
5891 5890 5891 5893 5894 5894 5894 5894 5894 5893 5892 5891 5890 5889 5888 5888 5887 5886 5885 5884 5883 5882 5881 5880 5879 5878 5876 5875 5873 5872 5871 5869 5868 5867 5866 5864 5863 5862 5861 5860 5859 5858 5856 5855 5854 5853 5853 5851 5850 5849 5847 5846 5845 5844 5843 5841 5840 5839 5837 5836 5834 5833 5831
5889 5890 5892 5893 5894 5894 5894 5894 5893 5893 5891 5890 5890 5889 5888 5887 5886 5885 5885 5884 5883 5882 5881 5880 5879 5878 5877 5875 5874 5873 5871 5870 5869 5868 5867 5865 5864 5863 5862 5860 5859 5858 5857 5856 5855 5854 5853 5851 5849 5848 5847 5846 5844 5843 5842 5840 5839 5838 5837 5835 5834 5833 5831
5889 5891 5892 5893 5894 5894 5893 5893 5893 5892 5891 5890 5889 5889 5888 5887 5886 5885 5885 5884 5883 5882 5881 5880 5879 5878 5877 5876 5874 5873 5872 5871 5870 5869 5868 5866 5865 5864 5862 5861 5860 5859 5857 5856 5855 5853 5852 5850 5849 5847 5846 5845 5844 5842 5841 5840 5838 5837 5836 5834 5833 5832 5831
5890 5891 5892 5893 5893 5893 5893 5892 5892 5891 5890 5889 5889 5888 5888 5887 5886 5885 5885 5884 5883 5882 5881 5880 5879 5878 5877 5876 5875 5874 5872 5871 5870 5869 5868 5867 5865 5864 5863 5861 5860 5859 5857 5856 5854 5853 5851 5849 5848 5847 5846 5844 5843 5842 5840 5839 5837 5836 5835 5834 5832 5831 5830
5891 5891 5892 5893 5893 5892 5892 5892 5891 5890 5890 5889 5888 5888 5887 5887 5886 5885 5884 5884 5883 5882 5881 5881 5879 5879 5877 5876 5875 5874 5872 5871 5870 5869 5868 5867 5866 5864 5863 5861 5860 5858 5857 5855 5853 5852 5850 5849 5847 5846 5845 5844 5842 5841 5840 5838 5837 5835 5834 5833 5832 5830 5829
5890 5891 5892 5892 5891 5892 5891 5891 5890 5890 5889 5889 5888 5887 5887 5886 5886 5885 5884 5884 5883 5882 5881 5881 5880 5879 5878 5876 5875 5874 5873 5872 5870 5869 5868 5867 5866 5864 5863 5862 5860 5858 5856 5855 5853 5851 5850 5849 5847 5846 5845 5843 5842 5840 5839 5838 5836 5835 5833 5832 5831 5830 5829
Wind_Speed
16 17 17 17 18 18 17 16 17 19 18 16 14 12 12 12 12 12 11 9 9 9 9 9 9 9 9 10 10 10 9 8 9 9 10 10 10 11 12 13 13 13 13 13 13 12 11 12 13 13 14 15 16 17 17 18 17 17 16 15 13 12 13
16 15 17 17 17 18 17 17 17 18 18 17 16 14 12 11 11 12 12 12 11 10 10 10 10 10 10 10 11 11 10 10 10 10 10 10 11 11 12 13 13 12 12 13 14 14 13 14 15 14 14 16 18 18 18 17 16 16 15 13 12 12 13
15 15 17 17 18 18 17 17 17 16 17 17 16 15 14 12 12 12 13 13 12 11 10 10 10 10 10 10 10 11 12 11 12 11 10 11 11 11 11 12 12 12 13 15 15 15 15 15 15 15 16 17 19 19 17 15 14 14 13 12 12 12 13
16 16 17 17 18 18 16 14 15 16 16 16 16 15 14 13 12 12 12 12 12 12 11 10 9 9 8 8 9 10 11 12 12 12 12 12 12 13 13 13 13 13 16 17 17 16 16 16 16 16 17 19 20 19 17 15 14 13 12 11 11 13 14
17 17 17 16 16 16 15 14 13 14 14 15 15 15 14 13 12 11 11 12 12 12 12 11 10 8 7 7 7 8 8 9 10 10 11 12 13 14 14 14 14 15 17 19 18 18 17 16 16 16 17 18 18 16 15 14 13 12 11 10 11 13 13
18 17 16 16 15 14 14 14 13 12 13 14 15 15 14 12 11 11 11 12 12 11 12 12 10 9 8 7 7 8 8 8 8 8 9 9 11 12 12 12 13 15 15 17 18 18 17 17 16 16 16 17 16 15 13 12 11 11 10 11 12 12 12
17 17 16 16 16 15 15 15 14 13 13 14 14 15 14 13 12 13 13 12 12 11 11 11 9 8 8 8 8 7 8 8 8 7 8 8 9 10 11 11 13 14 14 15 16 16 16 16 15 15 14 14 15 14 12 10 10 10 11 11 12 12 12
16 15 15 14 15 14 12 12 12 13 13 14 14 15 15 15 15 14 15 14 13 12 11 10 9 8 8 8 7 7 7 8 8 7 7 9 10 11 11 11 12 13 13 15 15 15 15 14 13 13 12 12 12 12 10 10 10 11 11 11 12 12 12
14 14 13 13 13 12 9 9 10 11 13 14 14 15 16 17 17 17 17 16 15 13 12 10 9 9 8 8 8 8 8 9 9 9 9 11 12 12 10 11 13 14 13 14 15 14 14 14 12 11 10 11 11 9 9 10 11 11 11 11 11 11 11
13 12 12 12 13 11 9 9 9 10 12 13 14 15 16 16 17 17 17 17 15 14 12 11 10 10 9 9 9 9 10 11 12 12 12 12 13 13 11 11 14 15 13 12 14 15 16 15 11 8 7 9 10 9 9 10 10 10 11 11 11 11 11
13 12 13 14 14 12 11 10 9 10 13 14 15 16 16 16 17 16 17 17 16 15 14 13 12 11 11 11 11 11 11 13 14 13 14 14 13 14 14 13 14 16 14 14 15 15 16 14 9 5 5 7 8 8 9 10 10 10 11 11 11 11 11
14 13 14 13 11 10 11 11 11 11 13 14 15 16 16 17 17 16 16 16 16 16 16 14 14 13 13 13 14 14 13 14 15 16 15 14 13 14 16 15 15 14 14 14 14 13 12 10 5 3 4 6 7 7 8 9 10 10 10 10 11 11 10
14 14 14 10 8 9 10 11 11 13 14 15 16 16 17 17 17 17 17 16 16 16 16 15 15 15 15 15 16 16 15 15 17 17 16 15 14 15 15 15 14 12 12 12 11 10 9 5 2 1 3 5 6 7 8 8 9 9 9 10 11 10 9
14 15 12 8 9 10 10 10 12 14 15 15 16 17 17 18 18 17 16 16 15 15 16 16 16 16 16 16 17 16 16 15 16 17 17 16 15 15 13 12 11 9 9 9 8 7 6 4 2 2 3 5 6 7 8 8 9 9 9 10 10 9 8
15 14 10 8 8 7 7 10 13 14 14 14 15 16 17 18 18 17 16 16 15 15 16 16 17 18 18 17 16 16 16 15 15 16 17 16 15 14 12 11 9 7 7 7 5 4 6 5 4 4 5 6 7 7 8 8 9 9 9 10 9 8 9
14 12 8 7 6 5 8 12 14 14 14 14 14 15 16 17 18 17 17 16 16 16 16 17 19 21 21 19 17 17 16 15 15 16 15 14 12 11 10 8 5 3 4 4 4 5 6 5 5 5 6 6 7 7 8 8 8 8 9 10 9 8 11
12 9 7 6 4 7 12 15 15 14 14 14 14 14 15 16 17 16 16 16 16 17 19 20 22 23 22 19 17 16 15 15 15 15 15 15 12 10 8 6 4 3 4 4 5 6 6 5 6 6 6 7 7 7 8 7 7 9 10 10 9 10 13
11 9 7 5 5 11 14 15 15 14 14 13 13 13 14 15 16 16 17 17 17 19 20 21 23 24 22 17 14 14 14 15 14 14 16 16 14 12 9 6 6 6 6 6 6 6 6 6 7 7 8 8 7 7 7 7 8 11 11 10 10 12 14
10 8 6 2 8 12 13 14 15 14 14 13 13 13 14 15 16 17 17 18 18 19 20 21 22 24 23 18 15 14 14 15 15 14 14 14 14 13 11 8 8 8 8 7 7 7 8 7 8 8 7 7 6 7 7 7 10 12 11 10 11 13 15
10 8 4 4 10 11 11 12 14 14 13 13 13 13 14 15 16 17 17 18 18 18 19 20 22 24 24 21 18 15 15 16 16 15 14 13 14 13 12 11 10 9 8 8 8 8 8 8 8 7 7 6 7 8 7 8 11 12 11 11 12 14 16
11 8 2 7 9 9 9 11 12 13 13 13 14 14 14 15 15 16 17 18 18 19 19 20 22 24 24 22 17 15 15 16 17 17 16 14 14 13 12 11 11 10 9 9 9 9 8 8 8 7 7 8 8 8 8 9 11 12 11 12 13 14 17
10 3 4 8 8 8 9 10 11 12 13 13 14 14 14 14 15 16 17 17 18 19 19 20 23 24 24 22 17 12 12 13 15 16 16 15 14 13 12 12 12 12 12 11 11 10 10 9 9 8 8 9 9 8 7 9 11 13 12 13 13 15 17
4 5 7 6 7 8 8 9 10 12 12 13 14 14 14 14 15 15 16 17 18 18 19 21 24 25 25 23 17 10 9 10 11 13 14 14 13 13 12 12 13 13 13 13 12 12 11 11 10 9 10 10 9 8 7 9 13 14 13 13 14 16 18
2 5 3 4 7 7 7 9 10 11 12 13 13 13 14 14 14 15 16 17 18 18 19 21 24 26 25 22 16 10 8 9 9 10 12 13 13 13 13 13 14 14 14 14 14 13 13 12 11 10 11 10 10 8 8 11 14 15 14 13 14 16 19
6 3 2 4 7 6 6 8 9 10 12 12 12 13 13 13 13 14 16 17 17 19 20 21 24 26 25 22 17 12 9 8 8 9 11 12 13 13 13 14 15 16 16 15 15 14 13 13 12 11 11 11 10 9 9 11 14 15 14 13 15 17 20
8 4 5 7 8 7 7 7 8 10 11 11 12 12 12 12 13 14 15 16 18 19 20 21 23 25 25 21 17 14 12 9 8 9 10 11 12 12 13 14 16 17 17 16 14 14 14 14 13 12 12 12 11 10 10 11 14 15 15 14 15 17 19
7 6 6 7 7 7 7 7 8 10 11 11 11 11 11 11 12 14 15 16 17 19 20 21 22 23 24 22 18 16 14 11 9 9 9 10 11 11 13 14 16 17 16 15 14 14 14 14 14 13 12 12 12 11 11 11 13 16 16 15 15 17 19
6 7 6 5 6 7 8 8 9 11 11 11 11 10 10 10 12 14 15 16 17 18 19 20 20 21 22 22 20 17 15 13 11 9 9 10 10 11 12 13 14 16 16 15 15 16 15 14 13 13 12 12 12 12 12 11 13 15 16 15 15 17 19
5 6 5 4 7 9 9 10 10 11 11 11 10 9 9 10 12 14 15 15 16 17 18 19 20 19 20 21 21 19 17 15 13 11 10 10 11 11 12 13 14 15 15 15 16 16 15 13 13 12 12 12 13 13 12 12 12 15 16 16 16 16 18
4 5 5 6 8 9 9 11 11 11 11 11 10 9 9 11 12 13 14 15 16 16 18 18 19 18 18 18 19 19 18 17 15 14 12 11 11 12 12 13 14 14 15 15 16 16 15 13 12 12 12 13 14 14 13 13 13 14 16 17 16 16 18
4 5 7 8 8 8 9 11 12 11 11 10 10 10 10 10 11 12 14 14 15 16 17 17 18 18 18 17 17 18 18 18 17 16 14 12 12 12 12 13 14 14 15 15 15 16 16 14 12 12 13 13 14 14 14 13 13 13 15 17 18 18 18
4 7 8 7 8 8 9 11 12 12 11 11 11 11 10 10 10 12 13 13 14 15 16 16 17 17 17 17 17 17 17 18 18 17 16 14 13 12 12 13 12 13 14 15 16 17 17 15 14 13 13 13 13 13 13 13 13 13 14 17 18 19 18
5 7 6 6 7 8 9 10 12 13 12 12 12 11 10 9 10 11 12 13 13 14 14 15 15 16 16 16 16 16 16 17 17 17 17 16 15 14 14 13 13 14 14 14 14 15 15 15 14 13 13 13 13 13 13 13 13 14 14 15 17 18 18
6 5 5 5 6 8 9 10 11 13 13 12 12 11 10 10 10 12 13 12 12 12 13 13 14 15 15 16 16 16 16 16 16 16 16 16 16 15 14 14 14 14 13 12 12 12 13 14 14 13 13 13 13 13 14 14 14 15 15 15 16 17 18
5 4 4 5 6 7 8 9 11 12 13 13 12 11 10 10 11 12 12 12 11 11 12 12 13 14 15 15 15 15 15 15 16 16 15 15 15 15 15 14 14 14 13 13 13 13 13 14 15 15 15 14 14 14 15 15 15 15 15 15 15 16 18
3 3 4 5 6 7 8 9 10 11 13 13 12 10 10 10 11 12 12 11 10 11 11 12 13 13 14 14 15 15 15 15 16 16 16 16 16 16 16 16 16 16 16 16 15 15 16 16 16 15 15 15 15 15 15 15 15 15 15 16 15 16 17
3 3 4 5 6 6 7 8 9 10 12 12 12 11 10 10 10 11 10 10 10 11 11 12 12 12 13 13 14 15 15 15 16 16 17 17 17 17 17 17 17 17 17 18 18 17 18 17 17 16 16 16 15 15 16 16 16 16 16 16 16 16 16
3 4 5 6 6 6 7 7 8 9 10 11 11 11 10 10 10 10 9 9 10 11 11 11 11 11 12 12 13 14 15 16 16 17 18 18 19 19 19 18 18 18 18 19 18 18 18 18 17 17 17 16 16 16 16 17 17 16 16 16 16 16 16
Wind_Direction
3 360 0 360 357 359 0 4 18 29 35 38 39 35 30 23 18 14 9 5 355 343 334 325 317 313 313 308 304 306 305 302 296 292 295 299 303 304 306 308 310 318 323 323 325 324 320 320 326 331 332 333 335 336 336 335 334 333 332 336 339 342 344
5 355 357 3 3 3 4 8 15 24 31 35 37 34 30 21 11 5 3 4 2 351 341 331 320 313 307 300 297 295 293 291 287 288 292 295 299 300 302 306 309 316 322 322 321 318 318 320 324 328 329 330 332 332 332 332 331 330 330 334 342 347 348
1 358 0 4 2 360 2 8 11 17 26 31 33 31 29 26 16 5 1 359 358 356 349 336 321 312 306 302 299 294 290 287 284 286 290 291 293 296 301 306 308 314 317 315 312 311 314 318 319 321 324 327 330 330 328 327 327 328 331 337 345 351 351
4 3 3 3 360 355 355 3 9 13 23 29 31 29 26 27 23 11 5 359 355 355 355 347 331 319 313 309 306 300 296 292 290 289 290 290 293 296 301 304 303 308 308 305 305 305 307 311 315 320 326 330 330 329 327 326 330 333 335 342 352 354 351
11 6 3 2 359 353 349 357 6 11 19 27 29 29 26 24 23 18 12 6 360 357 357 357 351 340 330 324 320 317 314 308 304 299 294 295 296 296 300 302 302 305 305 302 303 304 304 307 312 319 326 329 327 326 326 329 334 337 341 350 358 357 351
13 6 2 1 355 349 346 351 2 10 19 25 25 27 26 20 18 19 15 8 6 6 3 1 360 353 343 338 335 331 327 320 318 315 308 306 304 302 306 310 308 308 309 307 305 305 306 307 306 311 321 325 326 327 328 331 337 342 348 358 1 358 352
12 6 0 358 352 352 351 349 358 8 17 24 24 22 20 15 15 17 14 8 6 9 8 3 359 353 342 340 341 336 327 323 325 324 320 317 314 313 314 314 313 315 315 313 308 307 310 310 307 309 319 327 330 331 333 340 347 350 356 2 2 356 353
12 5 358 354 354 360 358 352 359 5 11 21 24 20 15 10 9 9 8 6 4 6 5 359 353 347 340 335 334 329 322 321 319 316 318 318 316 321 321 313 313 317 317 314 313 314 316 315 312 313 318 327 333 335 341 351 355 356 1 3 0 356 356
9 3 356 352 356 2 1 2 9 6 10 21 24 21 16 9 4 3 2 1 0 0 358 353 345 339 334 325 319 318 314 313 314 316 322 321 314 312 311 303 302 310 314 314 317 322 322 316 312 310 315 328 337 342 351 360 359 358 1 2 359 358 0
6 359 353 350 353 356 356 7 15 10 15 25 24 20 15 7 4 1 360 359 358 354 351 350 343 333 328 322 317 316 314 319 324 322 317 313 305 300 299 298 299 304 311 313 315 321 322 316 307 298 311 332 344 351 359 2 359 358 1 1 360 1 1
360 349 351 353 353 354 354 1 10 14 21 27 25 20 13 6 5 3 1 1 357 352 350 347 340 330 325 319 318 322 325 327 324 313 303 299 297 301 309 314 307 304 308 311 312 318 321 315 298 281 312 339 350 358 1 360 358 359 1 1 1 359 358
351 347 357 0 357 357 354 354 4 19 27 28 24 19 12 7 7 6 5 3 359 354 350 345 339 330 323 324 331 331 325 322 316 308 305 303 301 306 313 314 307 301 303 306 309 317 323 317 291 268 319 346 358 2 1 359 359 1 1 360 359 356 357
346 349 358 1 4 10 1 351 3 22 28 25 20 16 11 8 8 8 8 6 2 357 350 344 337 329 326 337 344 335 322 321 321 317 316 315 312 309 307 304 300 299 303 308 312 323 332 328 290 281 340 359 9 5 1 1 1 2 1 358 355 354 356
341 342 347 349 355 4 1 355 8 24 26 19 15 14 10 8 8 9 9 8 4 359 352 345 335 332 338 345 345 336 327 326 326 323 324 325 320 313 308 307 306 309 321 327 327 339 355 12 43 31 15 16 13 4 0 3 3 3 359 353 351 352 352
338 334 335 333 333 340 357 9 18 24 20 12 12 11 8 7 7 8 8 7 4 360 356 346 338 342 348 347 345 344 336 331 330 331 333 332 324 319 321 324 322 324 338 345 354 16 30 46 52 39 31 21 10 4 3 4 4 359 351 349 350 350 351
335 331 326 312 303 333 12 21 22 18 11 7 8 6 5 5 5 5 5 3 0 358 356 349 345 352 354 347 349 351 342 337 341 341 341 340 335 333 336 339 337 339 358 14 45 55 49 52 45 31 27 20 10 7 6 4 0 351 347 349 349 350 357
327 322 307 291 312 10 23 23 17 11 5 2 1 1 1 2 1 1 0 360 358 356 356 353 352 357 358 351 349 349 343 347 353 353 354 359 5 8 9 22 42 52 56 63 69 63 51 43 32 23 23 20 13 9 6 1 353 349 350 349 350 357 359
310 300 285 290 14 26 23 19 12 5 0 355 354 356 357 358 357 355 353 354 356 355 356 355 354 356 357 352 347 345 348 359 6 8 9 12 20 28 32 51 66 70 73 72 66 57 45 33 22 18 20 17 11 8 6 0 354 351 349 347 354 1 355
294 283 275 331 40 33 21 13 6 0 355 351 349 350 353 355 353 350 348 350 352 354 356 356 355 354 354 352 348 346 355 7 16 21 22 23 29 33 34 43 56 62 66 62 50 41 32 22 14 15 16 12 8 11 10 2 356 349 345 350 360 359 351
287 272 266 35 41 31 18 7 359 356 352 348 346 346 350 353 350 345 344 346 348 353 357 358 357 355 353 352 349 345 353 9 23 31 36 38 39 39 38 41 47 50 49 42 35 30 22 15 12 15 15 11 13 15 9 1 353 346 346 358 1 354 349
275 252 197 63 46 27 12 1 354 352 349 345 345 345 348 350 346 340 340 343 347 353 358 0 359 357 354 353 349 344 347 0 17 27 35 41 43 43 45 45 43 39 34 29 26 22 17 15 16 18 16 15 15 12 4 356 349 345 353 3 358 350 349
258 244 61 55 47 26 6 356 352 349 346 344 345 346 346 346 342 337 337 341 347 355 1 2 1 359 356 353 350 349 352 360 13 22 29 39 43 43 44 43 38 31 26 23 21 18 17 18 17 16 15 14 10 4 356 352 348 351 359 1 355 350 350
265 36 37 36 42 29 1 351 349 344 344 345 344 345 344 342 340 336 336 342 350 359 5 4 3 1 359 356 354 357 5 9 17 25 29 36 42 42 40 39 35 29 24 21 18 17 17 17 15 13 11 9 4 357 352 350 352 356 359 357 352 351 352
75 59 61 64 55 35 0 350 345 339 343 345 344 344 342 339 339 337 336 344 356 4 7 6 6 4 3 3 4 10 19 19 20 28 30 30 35 37 37 36 33 27 21 18 16 16 15 14 12 10 8 5 1 356 351 350 354 358 357 353 353 353 354
101 76 56 64 61 42 5 349 340 338 344 344 342 343 341 339 340 338 340 350 2 9 9 10 10 8 8 11 14 20 28 24 19 26 28 25 26 29 32 32 27 20 17 15 15 14 13 12 11 9 6 4 1 356 349 350 355 357 354 352 354 355 356
90 64 35 39 45 35 13 355 341 341 344 342 341 343 342 341 340 340 346 358 7 11 11 12 13 12 13 15 18 25 30 26 19 22 26 24 22 22 25 24 18 14 13 13 14 13 14 14 11 7 4 3 359 351 345 347 354 355 353 353 354 354 358
95 88 60 41 37 27 16 2 346 343 345 342 343 344 343 343 343 344 353 4 10 12 12 12 14 15 16 17 18 23 27 26 21 21 23 23 20 19 20 17 12 12 12 13 13 14 15 14 9 5 3 359 354 347 343 345 351 353 353 352 352 354 359
106 92 71 50 45 33 19 5 351 348 346 343 344 347 347 347 348 352 359 6 11 13 12 12 14 15 18 20 20 21 23 23 21 19 21 22 20 19 17 12 10 13 14 14 15 14 13 12 7 4 0 355 352 348 344 344 347 350 352 352 351 354 358
102 92 82 59 46 35 20 6 356 351 346 345 348 349 351 354 354 357 2 6 9 12 12 12 14 15 18 21 22 23 23 20 17 15 16 19 20 18 13 10 12 14 14 16 16 13 10 9 7 4 359 354 352 351 347 343 342 345 350 353 352 353 357
117 101 82 54 41 30 17 8 1 353 348 348 351 353 357 359 356 356 2 6 8 11 11 11 12 15 17 20 23 24 25 23 19 16 14 14 16 14 13 14 15 15 15 17 16 13 10 7 5 4 1 356 354 352 347 341 337 340 348 353 353 352 356
150 97 68 45 29 16 7 4 360 354 351 351 354 359 1 357 352 354 1 4 6 9 10 10 12 14 16 18 21 23 26 26 24 21 18 15 13 12 14 16 16 14 15 16 15 14 12 7 3 3 1 357 354 351 346 340 336 336 343 351 354 354 356
117 71 53 31 15 3 358 357 355 353 355 356 357 359 357 351 349 352 357 2 4 7 9 11 12 15 17 18 20 22 24 26 26 25 24 22 19 16 16 17 16 14 13 12 11 12 10 5 2 359 358 357 353 349 345 341 336 335 339 349 354 354 355
74 53 34 14 3 353 349 351 351 353 357 358 356 355 352 349 348 349 352 357 1 5 10 11 13 16 18 18 20 22 23 24 25 25 26 27 26 23 20 18 15 13 10 7 5 4 4 5 3 358 353 352 350 348 346 343 341 340 339 344 350 352 354
59 38 17 359 348 342 341 345 349 353 357 357 354 353 352 349 349 349 350 353 358 6 11 13 13 16 18 19 21 22 22 23 24 24 25 25 25 25 22 19 16 14 10 6 2 1 3 6 6 360 354 352 349 349 349 347 345 343 339 338 343 348 352
42 15 360 342 333 333 333 337 346 352 355 354 352 353 352 349 350 350 347 350 1 9 13 14 14 15 16 18 19 20 21 21 21 22 23 22 21 21 20 19 17 15 13 11 8 4 4 6 5 1 357 354 351 348 347 346 344 343 340 337 337 341 348
12 348 334 320 320 323 324 331 341 348 353 352 348 350 351 348 349 349 347 352 4 13 14 13 13 14 16 17 18 19 20 19 18 19 19 18 18 16 14 13 12 10 9 10 9 6 5 3 1 359 356 353 350 347 344 343 342 342 341 337 334 335 342
332 317 304 301 308 310 315 327 335 342 349 348 343 345 347 345 347 349 348 353 4 10 11 11 11 13 15 17 19 20 20 20 20 19 18 17 16 13 11 9 7 4 4 4 4 3 2 360 356 354 352 350 349 346 344 342 341 340 340 338 335 334 335
302 292 285 288 294 299 310 324 331 337 342 341 340 342 341 339 344 347 345 350 358 1 2 4 8 11 13 16 20 22 23 24 24 23 22 21 18 16 12 8 5 3 0 358 357 357 357 355 352 350 348 346 345 346 344 342 339 339 338 337 336 334 332